H1 CPF 1 NER 2021 12 6 9 8401 glonass140 H2 1903001 9140 44299 2021 12 6 0 0 0 2021 12 9 23 45 0 900 1 1 0 0 0 H9 10 0 59554 0.00000 0 3846614.054 -11269574.063 22586037.932 10 0 59554 900.00000 0 6540567.709 -11699079.648 21733085.352 10 0 59554 1800.00000 0 9068446.877 -12295299.985 20459335.901 10 0 59554 2700.00000 0 11372480.642 -13023616.015 18789455.352 10 0 59554 3600.00000 0 13403405.692 -13840364.820 16755754.840 10 0 59554 4500.00000 0 15122266.817 -14694732.763 14397574.128 10 0 59554 5400.00000 0 16501795.469 -15530965.759 11760531.029 10 0 59554 6300.00000 0 17527310.247 -16290804.915 8895650.287 10 0 59554 7200.00000 0 18197102.467 -16916046.174 5858387.618 10 0 59554 8100.00000 0 18522291.099 -17351117.067 2707566.622 10 0 59554 9000.00000 0 18526153.195 -17545562.468 -495751.875 10 0 59554 9900.00000 0 18242957.689 -17456334.618 -3689446.760 10 0 59554 10800.00000 0 17716351.382 -17049790.469 -6811537.462 10 0 59554 11700.00000 0 16997364.524 -16303311.086 -9801385.621 10 0 59554 12600.00000 0 16142119.683 -15206473.418 -12600874.077 10 0 59554 13500.00000 0 15209340.260 -13761723.279 -15155540.028 10 0 59554 14400.00000 0 14257763.651 -11984519.069 -17415639.946 10 0 59554 15300.00000 0 13343568.352 -9902938.011 -19337124.938 10 0 59554 16200.00000 0 12517923.917 -7556759.227 -20882507.032 10 0 59554 17100.00000 0 11824767.648 -4996059.936 -22021598.957 10 0 59554 18000.00000 0 11298902.490 -2279381.794 -22732112.332 10 0 59554 18900.00000 0 10964497.156 528457.529 -23000102.031 10 0 59554 19800.00000 0 10834052.511 3358817.315 -22820247.428 10 0 59554 20700.00000 0 10907878.609 6141849.612 -22195964.416 10 0 59554 21600.00000 0 11174105.066 8809169.263 -21139345.381 10 0 59554 22500.00000 0 11609224.825 11296466.927 -19670927.782 10 0 59554 23400.00000 0 12179148.547 13545955.933 -17819295.379 10 0 59554 24300.00000 0 12840725.020 15508550.767 -15620519.630 10 0 59554 25200.00000 0 13543662.958 17145686.107 -13117452.075 10 0 59554 26100.00000 0 14232772.176 18430700.434 -10358881.772 10 0 59554 27000.00000 0 14850428.418 19349726.771 -7398574.759 10 0 59554 27900.00000 0 15339156.341 19902054.096 -4294215.051 10 0 59554 28800.00000 0 15644220.118 20099945.486 -1106268.962 10 0 59554 29700.00000 0 15716110.862 19967922.371 2103203.904 10 0 59554 30600.00000 0 15512824.592 19541546.984 5271768.618 10 0 59554 31500.00000 0 15001833.713 18865756.386 8337836.870 10 0 59554 32400.00000 0 14161668.287 17992820.356 11241868.222 10 0 59554 33300.00000 0 12983040.255 16980011.046 13927526.769 10 0 59554 34200.00000 0 11469463.460 15887084.021 16342770.486 10 0 59554 35100.00000 0 9637343.697 14773677.697 18440852.509 10 0 59554 36000.00000 0 7515535.361 13696740.895 20181215.684 10 0 59554 36900.00000 0 5144383.584 12708096.375 21530264.175 10 0 59554 37800.00000 0 2574291.888 11852241.837 22461998.641 10 0 59554 38700.00000 0 -136125.288 11164479.388 22958504.251 10 0 59554 39600.00000 0 -2922228.877 10669450.379 23010283.554 10 0 59554 40500.00000 0 -5715790.658 10380135.435 22616429.149 10 0 59554 41400.00000 0 -8447578.285 10297360.106 21784633.753 10 0 59554 42300.00000 0 -11049984.334 10409825.677 20531038.082 10 0 59554 43200.00000 0 -13459592.298 10694663.133 18879919.599 10 0 59554 44100.00000 0 -15619575.006 11118486.723 16863227.774 10 0 59554 45000.00000 0 -17481827.622 11638903.145 14519974.175 10 0 59554 45900.00000 0 -19008748.129 12206413.499 11895488.133 10 0 59554 46800.00000 0 -20174592.440 12766628.861 9040551.172 10 0 59554 47700.00000 0 -20966348.300 13262707.144 6010425.752 10 0 59554 48600.00000 0 -21384092.099 13637909.441 2863796.016 10 0 59554 49500.00000 0 -21440813.570 13838168.646 -338360.039 10 0 59554 50400.00000 0 -21161715.400 13814562.151 -3533945.745 10 0 59554 51300.00000 0 -20583016.874 13525584.072 -6660945.988 10 0 59554 52200.00000 0 -19750311.270 12939120.317 -9658629.385 10 0 59554 53100.00000 0 -18716545.566 12034041.990 -12468728.888 10 0 59554 54000.00000 0 -17539707.019 10801348.181 -15036577.721 10 0 59554 54900.00000 0 -16280313.805 9244807.987 -17312178.110 10 0 59554 55800.00000 0 -14998815.286 7381072.560 -19251181.461 10 0 59554 56700.00000 0 -13753011.534 5239250.065 -20815760.390 10 0 59554 57600.00000 0 -12595601.015 2859959.132 -21975355.031 10 0 59554 58500.00000 0 -11571960.166 293898.341 -22707278.440 10 0 59554 59400.00000 0 -10718248.857 -2400010.199 -22997168.726 10 0 59554 60300.00000 0 -10059922.019 -5156827.130 -22839278.427 10 0 59554 61200.00000 0 -9610710.695 -7908060.790 -22236594.894 10 0 59554 62100.00000 0 -9372115.768 -10584288.653 -21200788.703 10 0 59554 63000.00000 0 -9333435.976 -13117826.183 -19751990.566 10 0 59554 63900.00000 0 -9472329.000 -15445331.604 -17918400.624 10 0 59554 64800.00000 0 -9755881.679 -17510237.712 -15735737.502 10 0 59554 65700.00000 0 -10142143.567 -19264908.865 -13246537.738 10 0 59554 66600.00000 0 -10582058.118 -20672432.741 -10499319.550 10 0 59554 67500.00000 0 -11021708.706 -21707971.983 -7547627.728 10 0 59554 68400.00000 0 -11404783.061 -22359619.490 -4448979.045 10 0 59554 69300.00000 0 -11675150.385 -22628722.302 -1263729.892 10 0 59554 70200.00000 0 -11779440.613 -22529661.747 1946110.633 10 0 59554 71100.00000 0 -11669515.352 -22089100.739 5118097.824 10 0 59554 72000.00000 0 -11304724.931 -21344731.777 8190573.686 10 0 59554 72900.00000 0 -10653855.431 -20343580.324 11103869.791 10 0 59554 73800.00000 0 -9696683.053 -19139936.848 13801466.715 10 0 59554 74700.00000 0 -8425070.286 -17793006.139 16231087.236 10 0 59554 75600.00000 0 -6843557.824 -16364373.881 18345702.461 10 0 59554 76500.00000 0 -4969427.656 -14915397.498 20104432.086 10 0 59554 77400.00000 0 -2832234.946 -13504630.748 21473322.448 10 0 59554 78300.00000 0 -472828.341 -12185389.422 22425988.743 10 0 59554 79200.00000 0 2058100.628 -11003558.909 22944110.517 10 0 59554 80100.00000 0 4701879.115 -9995733.900 23017772.343 10 0 59554 81000.00000 0 7394049.043 -9187766.264 22645644.418 10 0 59554 81900.00000 0 10066807.813 -8593780.035 21835000.625 10 0 59554 82800.00000 0 12651593.853 -8215693.152 20601574.267 10 0 59554 83700.00000 0 15081711.525 -8043264.643 18969254.444 10 0 59554 84600.00000 0 17294888.335 -8054664.411 16969628.576 10 0 59554 85500.00000 0 19235659.878 -8217541.368 14641379.291 10 0 59555 0.00000 0 20857484.856 -8490545.078 12029546.540 10 0 59555 900.00000 0 22124504.119 -8825237.521 9184666.554 10 0 59555 1800.00000 0 23012869.124 -9168314.785 6161806.757 10 0 59555 2700.00000 0 23511587.654 -9464046.268 3019509.387 10 0 59555 3600.00000 0 23622849.163 -9656828.738 -181333.242 10 0 59555 4500.00000 0 23361816.770 -9693747.946 -3378652.085 10 0 59555 5400.00000 0 22755893.911 -9527039.533 -6510400.835 10 0 59555 6300.00000 0 21843495.744 -9116344.799 -9515758.492 10 0 59555 7200.00000 0 20672376.196 -8430665.114 -12336311.515 10 0 59555 8100.00000 0 19297580.300 -7449931.028 -14917192.420 10 0 59555 9000.00000 0 17779107.363 -6166118.034 -17208152.257 10 0 59555 9900.00000 0 16179382.910 -4583859.876 -19164545.563 10 0 59555 10800.00000 0 14560645.508 -2720531.237 -20748208.085 10 0 59555 11700.00000 0 12982358.353 -605793.945 -21928209.586 10 0 59555 12600.00000 0 11498754.634 1719376.494 -22681466.434 10 0 59555 13500.00000 0 10156620.095 4204145.348 -22993201.443 10 0 59555 14400.00000 0 8993406.334 6789694.961 -22857241.372 10 0 59555 15300.00000 0 8035754.456 9411445.779 -22276145.646 10 0 59555 16200.00000 0 7298491.382 12001530.179 -21261163.201 10 0 59555 17100.00000 0 6784141.063 14491416.328 -19832017.716 10 0 59555 18000.00000 0 6482971.036 16814572.455 -18016524.995 10 0 59555 18900.00000 0 6373571.897 18909060.089 -15850049.661 10 0 59555 19800.00000 0 6423944.488 20719947.479 -13374811.661 10 0 59555 20700.00000 0 6593047.883 22201441.800 -10639056.365 10 0 59555 21600.00000 0 6832741.408 23318650.598 -7696104.913 10 0 59555 22500.00000 0 7090037.044 24048898.698 -4603304.096 10 0 59555 23400.00000 0 7309565.244 24382545.612 -1420897.352 10 0 59555 24300.00000 0 7436148.140 24323270.002 1789159.954 10 0 59555 25200.00000 0 7417369.641 23887810.418 4964416.658 10 0 59555 26100.00000 0 7206032.351 23105174.761 8043148.398 10 0 59555 27000.00000 0 6762396.414 22015353.490 10965561.976 10 0 59555 27900.00000 0 6056104.978 20667592.424 13674957.491 10 0 59555 28800.00000 0 5067714.814 19118299.370 16118825.350 10 0 59555 29700.00000 0 3789767.534 17428673.753 18249857.197 10 0 59555 30600.00000 0 2227356.555 15662159.475 20026851.866 10 0 59555 31500.00000 0 398166.273 13881827.984 21415499.858 10 0 59555 32400.00000 0 -1668018.063 12147800.679 22389032.575 10 0 59555 33300.00000 0 -3930309.376 10514817.455 22928725.273 10 0 59555 34200.00000 0 -6338185.343 9030051.517 23024245.492 10 0 59555 35100.00000 0 -8833362.196 7731259.937 22673841.574 10 0 59555 36000.00000 0 -11351998.948 6645345.166 21884368.652 10 0 59555 36900.00000 0 -13827141.792 5787385.693 20671152.230 10 0 59555 37800.00000 0 -16191308.782 5160174.614 19057692.168 10 0 59555 38700.00000 0 -18379109.218 4754284.035 17075212.495 10 0 59555 39600.00000 0 -20329790.463 4548651.704 14762065.115 10 0 59555 40500.00000 0 -21989607.834 4511664.805 12162997.941 10 0 59555 41400.00000 0 -23313920.092 4602695.333 9328300.420 10 0 59555 42300.00000 0 -24268923.953 4774022.816 6312841.807 10 0 59555 43200.00000 0 -24832955.628 4973063.847 3175019.623 10 0 59555 44100.00000 0 -24997304.964 5144814.943 -24362.380 10 0 59555 45000.00000 0 -24766507.681 5234406.016 -3223265.683 10 0 59555 45900.00000 0 -24158102.803 5189656.695 -6359615.706 10 0 59555 46800.00000 0 -23201864.558 4963527.241 -9372504.734 10 0 59555 47700.00000 0 -21938540.049 4516359.801 -12203375.579 10 0 59555 48600.00000 0 -20418144.774 3817814.168 -14797162.790 10 0 59555 49500.00000 0 -18697886.739 2848414.760 -17103368.820 10 0 59555 50400.00000 0 -16839805.699 1600641.660 -19077053.666 10 0 59555 51300.00000 0 -14908226.219 79517.581 -20679718.203 10 0 59555 52200.00000 0 -12967131.140 -1697336.297 -21880063.427 10 0 59555 53100.00000 0 -11077565.670 -3700180.209 -22654610.174 10 0 59555 54000.00000 0 -9295181.043 -5888153.481 -22988166.663 10 0 59555 54900.00000 0 -7668020.897 -8210750.141 -22874134.105 10 0 59555 55800.00000 0 -6234643.465 -10609712.148 -22314643.799 10 0 59555 56700.00000 0 -5022658.435 -13021262.235 -21320522.424 10 0 59555 57600.00000 0 -4047739.850 -15378583.629 -19911085.649 10 0 59555 58500.00000 0 -3313156.315 -17614443.168 -18113763.638 10 0 59555 59400.00000 0 -2809837.706 -19663847.955 -15963565.437 10 0 59555 60300.00000 0 -2516974.740 -21466624.019 -13502392.620 10 0 59555 61200.00000 0 -2403125.003 -22969808.368 -10778215.754 10 0 59555 62100.00000 0 -2427777.303 -24129753.709 -7844130.274 10 0 59555 63000.00000 0 -2543306.567 -24913857.222 -4757310.845 10 0 59555 63900.00000 0 -2697234.826 -25301840.674 -1577885.764 10 0 59555 64800.00000 0 -2834700.713 -25286528.502 1632245.570 10 0 59555 65700.00000 0 -2901031.196 -24874091.860 4810627.810 10 0 59555 66600.00000 0 -2844305.131 -24083749.517 7895472.544 10 0 59555 67500.00000 0 -2617798.909 -22946939.569 10826864.168 10 0 59555 68400.00000 0 -2182209.912 -21505998.365 13547924.671 10 0 59555 69300.00000 0 -1507563.402 -19812403.612 16005914.422 10 0 59555 70200.00000 0 -574722.295 -17924656.714 18153247.837 10 0 59555 71100.00000 0 623563.653 -15905893.971 19948404.971 10 0 59555 72000.00000 0 2082113.036 -13821327.055 21356722.348 10 0 59555 72900.00000 0 3783294.961 -11735619.584 22351049.170 10 0 59555 73800.00000 0 5697538.863 -9710308.512 22912257.700 10 0 59555 74700.00000 0 7784350.731 -7801376.645 23029599.424 10 0 59555 75600.00000 0 9993793.915 -6057075.719 22700901.501 10 0 59555 76500.00000 0 12268373.645 -4516088.733 21932600.691 10 0 59555 77400.00000 0 14545247.986 -3206106.099 20739614.791 10 0 59555 78300.00000 0 16758674.728 -2142872.968 19145054.242 10 0 59555 79200.00000 0 18842594.045 -1329745.735 17179779.226 10 0 59555 80100.00000 0 20733241.013 -757774.944 14881810.179 10 0 59555 81000.00000 0 22371680.739 -406310.165 12295602.175 10 0 59555 81900.00000 0 23706161.670 -244100.985 9471195.999 10 0 59555 82800.00000 0 24694189.719 -230847.818 6463261.206 10 0 59555 83700.00000 0 25304237.009 -319137.462 3330048.482 10 0 59555 84600.00000 0 25517013.788 -456682.205 132270.561 10 0 59555 85500.00000 0 25326249.774 -588768.400 -3068067.306 10 0 59556 0.00000 0 24738951.526 -660811.291 -6208864.920 10 0 59556 900.00000 0 23775123.601 -620908.114 -9229131.465 10 0 59556 1800.00000 0 22466964.889 -422281.094 -12070168.856 10 0 59556 2700.00000 0 20857571.615 -25506.363 -14676716.624 10 0 59556 3600.00000 0 18999200.963 599566.691 -16998031.419 10 0 59556 4500.00000 0 16951166.948 1472288.222 -18988881.305 10 0 59556 5400.00000 0 14777456.043 2600139.218 -20610434.677 10 0 59556 6300.00000 0 12544161.896 3978168.451 -21831025.928 10 0 59556 7200.00000 0 10316846.330 5588960.925 -22626782.277 10 0 59556 8100.00000 0 8157936.992 7403141.338 -22982098.981 10 0 59556 9000.00000 0 6124270.558 9380393.419 -22889953.017 10 0 59556 9900.00000 0 4264884.473 11470954.008 -22352048.495 10 0 59556 10800.00000 0 2619149.702 13617520.597 -21378790.370 10 0 59556 11700.00000 0 1215322.644 15757493.295 -19989086.396 10 0 59556 12600.00000 0 69576.711 17825457.645 -18209980.717 10 0 59556 13500.00000 0 -814446.316 19755804.292 -16076125.973 10 0 59556 14400.00000 0 -1445547.140 21485375.353 -13629104.050 10 0 59556 15300.00000 0 -1844346.861 22956025.851 -10916608.960 10 0 59556 16200.00000 0 -2042159.692 24116992.082 -7991508.251 10 0 59556 17100.00000 0 -2079409.754 24926966.807 -4910801.913 10 0 59556 18000.00000 0 -2003660.775 25355793.629 -1734500.220 10 0 59556 18900.00000 0 -1867344.017 25385709.226 1475556.519 10 0 59556 19800.00000 0 -1725282.535 25012081.466 4656912.065 10 0 59556 20700.00000 0 -1632118.306 24243613.033 7747717.318 10 0 59556 21600.00000 0 -1639752.596 23102003.023 10687937.595 10 0 59556 22500.00000 0 -1794908.917 21621081.956 13420520.017 10 0 59556 23400.00000 0 -2136922.228 19845457.854 15892497.979 10 0 59556 24300.00000 0 -2695847.937 17828731.370 18056011.523 10 0 59556 25200.00000 0 -3490970.343 15631355.646 19869224.500 10 0 59556 26100.00000 0 -4529772.940 13318230.941 21297121.738 10 0 59556 27000.00000 0 -5807413.429 10956134.499 22312172.174 10 0 59556 27900.00000 0 -7306725.133 8611092.189 22894846.626 10 0 59556 28800.00000 0 -8998744.577 6345800.381 23033981.661 10 0 59556 29700.00000 0 -10843743.371 4217203.742 22726983.912 10 0 59556 30600.00000 0 -12792721.881 2274327.743 21979871.921 10 0 59556 31500.00000 0 -14789303.219 556454.035 20807155.404 10 0 59556 32400.00000 0 -16771949.903 -908287.569 19231554.474 10 0 59556 33300.00000 0 -18676412.214 -2103853.797 17283564.035 10 0 59556 34200.00000 0 -20438307.706 -3026711.976 15000871.149 10 0 59556 35100.00000 0 -21995725.774 -3685737.031 12427635.717 10 0 59556 36000.00000 0 -23291749.860 -4101586.608 9613647.202 10 0 59556 36900.00000 0 -24276792.803 -4305580.920 6613372.544 10 0 59556 37800.00000 0 -24910648.239 -4338134.477 3484912.526 10 0 59556 38700.00000 0 -25164172.203 -4246805.545 288885.721 10 0 59556 39600.00000 0 -25020524.063 -4084045.228 -2912739.052 10 0 59556 40500.00000 0 -24475913.933 -3904740.925 -6057839.676 10 0 59556 41400.00000 0 -23539824.064 -3763657.843 -9085344.173 10 0 59556 42300.00000 0 -22234693.531 -3712886.821 -11936417.118 10 0 59556 43200.00000 0 -20595078.017 -3799406.867 -14555605.864 10 0 59556 44100.00000 0 -18666318.434 -4062866.313 -16891923.887 10 0 59556 45000.00000 0 -16502772.920 -4533677.519 -18899849.652 10 0 59556 45900.00000 0 -14165685.151 -5231507.146 -20540221.034 10 0 59556 46800.00000 0 -11720777.289 -6164227.468 -21781007.318 10 0 59556 47700.00000 0 -9235667.715 -7327374.865 -22597943.083 10 0 59556 48600.00000 0 -6777221.091 -8704140.252 -22975011.061 10 0 59556 49500.00000 0 -4408941.320 -10265893.799 -22904763.902 10 0 59556 50400.00000 0 -2188516.341 -11973223.531 -22388477.953 10 0 59556 51300.00000 0 -165617.361 -13777445.573 -21436135.440 10 0 59556 52200.00000 0 1619955.556 -15622523.681 -20066234.823 10 0 59556 53100.00000 0 3139703.993 -17447317.956 -18305432.568 10 0 59556 54000.00000 0 4377378.382 -19188068.503 -16188022.991 10 0 59556 54900.00000 0 5329402.827 -20781009.470 -13755266.192 10 0 59556 55800.00000 0 6004760.727 -22165003.013 -11054577.385 10 0 59556 56700.00000 0 6424347.422 -23284081.707 -8138593.871 10 0 59556 57600.00000 0 6619818.873 -24089791.687 -5064138.532 10 0 59556 58500.00000 0 6631986.846 -24543237.158 -1891101.143 10 0 59556 59400.00000 0 6508830.522 -24616739.771 1318739.564 10 0 59556 60300.00000 0 6303210.710 -24295042.859 4502928.940 10 0 59556 61200.00000 0 6070385.263 -23576010.053 7599559.637 10 0 59556 62100.00000 0 5865432.560 -22470789.507 10548480.275 10 0 59556 63000.00000 0 5740693.318 -21003437.675 13292465.369 10 0 59556 63900.00000 0 5743339.704 -19210019.496 15778323.458 10 0 59556 64800.00000 0 5913174.828 -17137223.755 17957922.118 10 0 59556 65700.00000 0 6280755.372 -14840552.468 19789110.655 10 0 59556 66600.00000 0 6865916.063 -12382160.555 21236523.555 10 0 59556 67500.00000 0 7676757.467 -9828436.070 22272250.515 10 0 59556 68400.00000 0 8709139.028 -7247421.390 22876361.590 10 0 59556 69300.00000 0 9946698.093 -4706181.811 23037278.762 10 0 59556 70200.00000 0 11361393.940 -2268229.484 22751988.150 10 0 59556 71100.00000 0 12914554.166 8892.087 22026089.808 10 0 59556 72000.00000 0 14558380.227 2075764.651 20873684.842 10 0 59556 72900.00000 0 16237850.139 3892905.478 19317102.294 10 0 59556 73800.00000 0 17892940.107 5432158.108 17386470.842 10 0 59556 74700.00000 0 19461073.610 6677607.456 15119143.049 10 0 59556 75600.00000 0 20879697.048 7625982.714 12558982.331 10 0 59556 76500.00000 0 22088875.555 8286532.310 9755525.312 10 0 59556 77400.00000 0 23033801.324 8680376.850 6763034.598 10 0 59556 78300.00000 0 23667110.076 8839367.546 3639459.126 10 0 59556 79200.00000 0 23950908.720 8804498.084 445321.159 10 0 59556 80100.00000 0 23858428.852 8623936.611 -2757449.231 10 0 59556 81000.00000 0 23375235.910 8350760.552 -5906710.169 10 0 59556 81900.00000 0 22499942.051 8040489.661 -8941311.553 10 0 59556 82800.00000 0 21244391.326 7748521.448 -11802282.789 10 0 59556 83700.00000 0 19633307.726 7527577.595 -14433981.414 10 0 59556 84600.00000 0 17703419.087 7425269.797 -16785179.972 10 0 59556 85500.00000 0 15502091.976 7481888.716 -18810069.415 10 0 59557 0.00000 0 13085533.416 7728510.587 -20469158.902 10 0 59557 900.00000 0 10516632.089 8185502.959 -21730054.697 10 0 59557 1800.00000 0 7862531.628 8861493.844 -22568100.213 10 0 59557 2700.00000 0 5192032.336 9752849.838 -22966867.114 10 0 59557 3600.00000 0 2572932.571 10843686.609 -22918484.958 10 0 59557 4500.00000 0 69419.352 12106412.947 -22423803.274 10 0 59557 5400.00000 0 -2260382.792 13502786.779 -21492382.156 10 0 59557 6300.00000 0 -4366602.461 14985439.786 -20142310.972 10 0 59557 7200.00000 0 -6209459.996 16499807.042 -18399858.257 10 0 59557 8100.00000 0 -7760677.469 17986380.765 -16298959.309 10 0 59557 9000.00000 0 -9004401.550 19383193.142 -13880551.299 10 0 59557 9900.00000 0 -9937601.306 20628423.136 -11191769.086 10 0 59557 10800.00000 0 -10569925.493 21663016.735 -8285017.798 10 0 59557 11700.00000 0 -10923026.876 22433209.307 -5216940.946 10 0 59557 12600.00000 0 -11029383.880 22892842.816 -2047305.273 10 0 59557 13500.00000 0 -10930671.383 23005379.468 1162174.845 10 0 59557 14400.00000 0 -10675751.622 22745526.395 4349049.286 10 0 59557 15300.00000 0 -10318372.181 22100402.739 7451355.519 10 0 59557 16200.00000 0 -9914670.311 21070200.182 10408828.575 10 0 59557 17100.00000 0 -9520590.598 19668309.607 13164073.477 10 0 59557 18000.00000 0 -9189326.166 17920909.321 15663676.938 10 0 59557 18900.00000 0 -8968892.065 15866032.926 17859236.969 10 0 59557 19800.00000 0 -8899933.237 13552156.573 19708291.030 10 0 59557 20700.00000 0 -9013859.076 11036365.267 21175125.703 10 0 59557 21600.00000 0 -9331382.380 8382174.845 22231453.559 10 0 59557 22500.00000 0 -9861523.248 5657100.081 22856945.630 10 0 59557 23400.00000 0 -10601118.895 2930069.343 23039610.618 10 0 59557 24300.00000 0 -11534859.285 268791.944 22776014.964 10 0 59557 25200.00000 0 -12635846.734 -2262814.205 22071340.543 10 0 59557 26100.00000 0 -13866656.094 -4607029.773 20939279.627 10 0 59557 27000.00000 0 -15180851.615 -6714478.219 19401769.418 10 0 59557 27900.00000 0 -16524897.871 -8545920.128 17488571.083 10 0 59557 28800.00000 0 -17840385.861 -10073624.902 15236700.901 10 0 59557 29700.00000 0 -19066482.392 -11282264.421 12689723.600 10 0 59557 30600.00000 0 -20142501.363 -12169292.713 9896920.403 10 0 59557 31500.00000 0 -21010490.259 -12744796.573 6912346.748 10 0 59557 32400.00000 0 -21617724.087 -13030823.972 3793796.706 10 0 59557 33300.00000 0 -21919002.421 -13060218.547 601693.088 10 0 59557 34200.00000 0 -21878652.890 -12875009.051 -2602075.985 10 0 59557 35100.00000 0 -21472156.277 -12524421.346 -5755352.089 10 0 59557 36000.00000 0 -20687323.808 -12062596.457 -8796910.198 10 0 59557 36900.00000 0 -19524975.646 -11546110.774 -11667647.669 10 0 59557 37800.00000 0 -17999090.329 -11031403.129 -14311735.226 10 0 59557 38700.00000 0 -16136416.901 -10572217.600 -16677707.285 10 0 59557 39600.00000 0 -13975564.104 -10217170.589 -18719469.816 10 0 59557 40500.00000 0 -11565602.933 -10007545.670 -20397205.672 10 0 59557 41400.00000 0 -8964239.333 -9975410.320 -21678159.184 10 0 59557 42300.00000 0 -6235632.168 -10142135.205 -22537284.071 10 0 59557 43200.00000 0 -3447946.458 -10517379.803 -22957741.501 10 0 59557 44100.00000 0 -670743.268 -11098588.477 -22931237.946 10 0 59557 45000.00000 0 2027685.260 -11871019.551 -22458195.600 10 0 59557 45900.00000 0 4582924.846 -12808307.289 -21547751.444 10 0 59557 46800.00000 0 6936883.225 -13873534.006 -20217584.373 10 0 59557 47700.00000 0 9039967.466 -15020767.728 -18493573.282 10 0 59557 48600.00000 0 10852903.619 -16197000.797 -16409292.446 10 0 59557 49500.00000 0 12348122.916 -17344407.558 -14005353.858 10 0 59557 50400.00000 0 13510656.933 -18402825.366 -11328609.534 10 0 59557 51300.00000 0 14338505.134 -19312353.453 -8431229.733 10 0 59557 52200.00000 0 14842460.660 -20015958.970 -5369675.731 10 0 59557 53100.00000 0 15045403.273 -20461979.112 -2203588.247 10 0 59557 54000.00000 0 14981091.233 -20606412.722 1005385.741 10 0 59557 54900.00000 0 14692505.185 -20414903.820 4194803.678 10 0 59557 55800.00000 0 14229816.073 -19864332.885 7302650.779 10 0 59557 56700.00000 0 13648064.955 -18943948.585 10268551.252 10 0 59557 57600.00000 0 13004654.443 -17655992.452 13034943.131 10 0 59557 58500.00000 0 12356758.972 -16015790.640 15548193.509 10 0 59557 59400.00000 0 11758763.996 -14051309.466 17759632.668 10 0 59557 60300.00000 0 11259842.306 -11802193.918 19626487.670 10 0 59557 61200.00000 0 10901769.280 -9318329.811 21112698.227 10 0 59557 62100.00000 0 10717068.249 -6657989.800 22189600.400 10 0 59557 63000.00000 0 10727562.928 -3885640.217 22836466.390 10 0 59557 63900.00000 0 10943396.534 -1069499.420 23040891.425 10 0 59557 64800.00000 0 11362557.645 1721052.069 22799021.698 10 0 59557 65700.00000 0 11970931.850 4418103.688 22115620.027 10 0 59557 66600.00000 0 12742876.491 6957781.761 21003968.698 10 0 59557 67500.00000 0 13642294.351 9282646.811 19485611.699 10 0 59557 68400.00000 0 14624161.670 11343823.836 17589941.138 10 0 59557 69300.00000 0 15636447.148 13102778.931 15353635.317 10 0 59557 70200.00000 0 16622342.491 14532670.119 12819958.458 10 0 59557 71100.00000 0 17522712.016 15619217.516 10037934.458 10 0 59557 72000.00000 0 18278659.501 16361057.447 7061409.555 10 0 59557 72900.00000 0 18834105.305 16769566.336 3948020.821 10 0 59557 73800.00000 0 19138265.867 16868162.009 758089.407 10 0 59557 74700.00000 0 19147931.344 16691111.630 -2446540.763 10 0 59557 75600.00000 0 18829445.083 16281896.167 -5603696.958 10 0 59557 76500.00000 0 18160300.662 15691199.900 -8652081.416 10 0 59557 77400.00000 0 17130287.906 14974609.342 -11532461.509 10 0 59557 78300.00000 0 15742137.894 14190118.448 -14188823.076 10 0 59557 79200.00000 0 14011637.829 13395545.303 -16569464.155 10 0 59557 80100.00000 0 11967208.797 12645969.510 -18628007.319 10 0 59557 81000.00000 0 9648962.018 11991298.861 -20324310.414 10 0 59557 81900.00000 0 7107271.055 11474068.573 -21625257.425 10 0 59557 82800.00000 0 4400918.040 11127566.780 -22505413.370 10 0 59557 83700.00000 0 1594889.892 10974366.262 -22947529.930 10 0 59557 84600.00000 0 -1242084.601 11025325.331 -22942891.312 10 0 59557 85500.00000 0 -4040154.727 11279100.970 -22491492.943 99